Placerville, CA

12:35 PM PST on February 14, 2016 (GMT -0800)
Placerville

Weather History for KPVF - November, 2012

Change the Weather History Date:

Wednesday, November 14, 2012

  Actual Average Record
Temperature  
Mean Temperature 57 °F -  
Max Temperature 64 °F 60 °F 68 °F (2010)
Min Temperature 50 °F 36 °F 44 °F (2015)
Degree Days  
Heating Degree Days 8    
Growing Degree Days 7 (Base 50)    
Moisture  
Dew Point 36 °F    
Average Humidity 48    
Maximum Humidity 63    
Minimum Humidity 33    
Precipitation  
Precipitation 0.00 in - - ()
Sea Level Pressure  
Sea Level Pressure 30.13 in    
Wind  
Wind Speed 3 mph (East)    
Max Wind Speed 12 mph    
Max Gust Speed -    
Visibility 10 miles    
Events      
Averages and records for this station are not official NWS values.
T = Trace of Precipitation, MM = Missing Value Source: NWS Daily Summary

Daily Weather History Graph

Daily Weather History Graph

Search for Another Location

Airport or City:

Trip Planner

Search our weather history database for the weather conditions in past years. The results will help you decide how hot, cold, wet, or windy it might be!

Date:

Astronomy

Nov. 14, 2012 Rise Set
Actual Time 6:44 AM PST 4:49 PM PST
Civil Twilight 6:16 AM PST 5:18 PM PST
Nautical Twilight 5:44 AM PST 5:50 PM PST
Astronomical Twilight 5:12 AM PST 6:21 PM PST
Moon 7:39 AM PST 5:44 PM PST
Length of Visible Light 11h 01m
Length of Day
10h 05m
New Moon, 1% of the Moon is Illuminated
Nov 14
New Moon
Nov 20
First Quarter
Nov 28
Full
Dec 6
Last Quarter
Dec 13
New

Hourly Weather History & Observations

Time (PST) Temp. Dew Point Humidity Pressure Visibility Wind Dir Wind Speed Gust Speed Precip Events Conditions
12:15 AM 51.8 °F 37.4 °F 58% 30.16 in 10.0 mi East 9.2 mph - N/A   Clear
12:35 AM 50.0 °F 37.4 °F 62% 30.15 in 10.0 mi East 8.1 mph - N/A   Clear
12:55 AM 51.8 °F 35.6 °F 54% 30.16 in 10.0 mi Calm Calm - N/A   Clear
1:15 AM 53.6 °F 35.6 °F 51% 30.16 in 10.0 mi Calm Calm - N/A   Clear
1:55 AM 50.0 °F 35.6 °F 58% 30.16 in 10.0 mi East 4.6 mph - N/A   Clear
2:15 AM 51.8 °F 35.6 °F 54% 30.16 in 10.0 mi East 4.6 mph - N/A   Clear
2:35 AM 53.6 °F 35.6 °F 51% 30.15 in 10.0 mi ESE 5.8 mph - N/A   Clear
2:55 AM 50.0 °F 35.6 °F 58% 30.15 in 10.0 mi ESE 3.5 mph - N/A   Clear
3:15 AM 50.0 °F 35.6 °F 58% 30.15 in 10.0 mi Calm Calm - N/A   Clear
3:35 AM 51.8 °F 35.6 °F 54% 30.15 in 10.0 mi Calm Calm - N/A   Clear
3:55 AM 53.6 °F 35.6 °F 51% 30.14 in 10.0 mi Calm Calm - N/A   Clear
4:15 AM 53.6 °F 35.6 °F 51% 30.14 in 10.0 mi Calm Calm - N/A   Partly Cloudy
4:35 AM 53.6 °F 35.6 °F 51% 30.14 in 10.0 mi Calm Calm - N/A   Scattered Clouds
4:55 AM 53.6 °F 35.6 °F 51% 30.14 in 10.0 mi Calm Calm - N/A   Partly Cloudy
5:15 AM 53.6 °F 35.6 °F 51% 30.14 in 10.0 mi Calm Calm - N/A   Partly Cloudy
5:35 AM 51.8 °F 35.6 °F 54% 30.13 in 10.0 mi Calm Calm - N/A   Clear
5:55 AM 51.8 °F 33.8 °F 50% 30.13 in 10.0 mi Calm Calm - N/A   Clear
6:15 AM 51.8 °F 33.8 °F 50% 30.14 in 10.0 mi Calm Calm - N/A   Clear
6:35 AM 51.8 °F 33.8 °F 50% 30.14 in 10.0 mi Calm Calm - N/A   Clear
6:55 AM 50.0 °F 35.6 °F 58% 30.14 in 10.0 mi Calm Calm - N/A   Clear
7:15 AM 50.0 °F 32.0 °F 50% 30.14 in 10.0 mi East 8.1 mph - N/A   Clear
7:35 AM 50.0 °F 33.8 °F 54% 30.14 in 10.0 mi Calm Calm - N/A   Clear
7:55 AM 55.4 °F 35.6 °F 47% 30.15 in 10.0 mi Calm Calm - N/A   Clear
8:15 AM 57.2 °F 35.6 °F 44% 30.15 in 10.0 mi Calm Calm - N/A   Clear
8:35 AM 57.2 °F 35.6 °F 44% 30.15 in 10.0 mi Calm Calm - N/A   Clear
8:55 AM 57.2 °F 37.4 °F 48% 30.16 in 10.0 mi Calm Calm - N/A   Clear
9:15 AM 57.2 °F 37.4 °F 48% 30.15 in 10.0 mi Calm Calm - N/A   Clear
9:35 AM 59.0 °F 37.4 °F 45% 30.16 in 10.0 mi Calm Calm - N/A   Clear
9:55 AM 59.0 °F 37.4 °F 45% 30.17 in 10.0 mi Calm Calm - N/A   Clear
10:15 AM 57.2 °F 39.2 °F 51% 30.17 in 10.0 mi Calm Calm - N/A   Clear
10:55 AM 59.0 °F 39.2 °F 48% 30.17 in 10.0 mi Calm Calm - N/A   Clear
11:15 AM 59.0 °F 39.2 °F 48% 30.16 in 10.0 mi Calm Calm - N/A   Clear
11:35 AM 59.0 °F 37.4 °F 45% 30.16 in 10.0 mi Calm Calm - N/A   Clear
11:55 AM 60.8 °F 37.4 °F 42% 30.15 in 10.0 mi Calm Calm - N/A   Clear
12:15 PM 60.8 °F 39.2 °F 45% 30.15 in 10.0 mi Calm Calm - N/A   Clear
12:35 PM 60.8 °F 37.4 °F 42% 30.14 in 10.0 mi Calm Calm - N/A   Clear
12:55 PM 62.6 °F 37.4 °F 39% 30.13 in 10.0 mi Calm Calm - N/A   Clear
1:15 PM 62.6 °F 37.4 °F 39% 30.13 in 10.0 mi Calm Calm - N/A   Clear
1:35 PM 62.6 °F 37.4 °F 39% 30.12 in 10.0 mi Calm Calm - N/A   Clear
1:55 PM 64.4 °F 39.2 °F 40% 30.11 in 10.0 mi Calm Calm - N/A   Clear
2:15 PM 64.4 °F 37.4 °F 37% 30.11 in 10.0 mi Calm Calm - N/A   Clear
2:35 PM 64.4 °F 37.4 °F 37% 30.10 in 10.0 mi Calm Calm - N/A   Clear
2:55 PM 64.4 °F 39.2 °F 40% 30.10 in 10.0 mi Calm Calm - N/A   Clear
3:15 PM 64.4 °F 39.2 °F 40% 30.10 in 10.0 mi Calm Calm - N/A   Clear
3:35 PM 64.4 °F 39.2 °F 40% 30.10 in 10.0 mi Calm Calm - N/A   Clear
3:55 PM 62.6 °F 39.2 °F 42% 30.10 in 10.0 mi Calm Calm - N/A   Clear
4:15 PM 62.6 °F 39.2 °F 42% 30.10 in 10.0 mi Calm Calm - N/A   Clear
4:35 PM 59.0 °F 41.0 °F 51% 30.10 in 10.0 mi Calm Calm - N/A   Clear
4:55 PM 59.0 °F 41.0 °F 51% 30.10 in 10.0 mi Calm Calm - N/A   Clear
5:15 PM 57.2 °F 42.8 °F 59% 30.10 in 10.0 mi Calm Calm - N/A   Clear
5:35 PM 57.2 °F 42.8 °F 59% 30.10 in 10.0 mi Calm Calm - N/A   Clear
5:55 PM 57.2 °F 42.8 °F 59% 30.10 in 10.0 mi Calm Calm - N/A   Clear
6:15 PM 55.4 °F 42.8 °F 63% 30.10 in 10.0 mi Calm Calm - N/A   Clear
6:35 PM 55.4 °F 41.0 °F 58% 30.10 in 10.0 mi East 8.1 mph - N/A   Clear
6:55 PM 57.2 °F 39.2 °F 51% 30.10 in 10.0 mi East 8.1 mph - N/A   Clear
7:15 PM 57.2 °F 39.2 °F 51% 30.10 in 10.0 mi ENE 10.4 mph - N/A   Clear
7:35 PM 55.4 °F 37.4 °F 51% 30.10 in 10.0 mi ENE 11.5 mph - N/A   Clear
7:55 PM 55.4 °F 37.4 °F 51% 30.10 in 10.0 mi Calm Calm - N/A   Clear
8:15 PM 55.4 °F 35.6 °F 47% 30.10 in 10.0 mi East 5.8 mph - N/A   Clear
8:35 PM 55.4 °F 35.6 °F 47% 30.10 in 10.0 mi East 6.9 mph - N/A   Clear
8:55 PM 53.6 °F 33.8 °F 47% 30.10 in 10.0 mi East 4.6 mph - N/A   Clear
9:15 PM 53.6 °F 33.8 °F 47% 30.10 in 10.0 mi Calm Calm - N/A   Clear
9:35 PM 55.4 °F 32.0 °F 41% 30.10 in 10.0 mi Calm Calm - N/A   Clear
9:55 PM 53.6 °F 30.2 °F 41% 30.10 in 10.0 mi Calm Calm - N/A   Clear
10:15 PM 51.8 °F 32.0 °F 47% 30.09 in 10.0 mi East 9.2 mph - N/A   Clear
10:55 PM 50.0 °F 28.4 °F 43% 30.08 in 10.0 mi East 8.1 mph - N/A   Clear
11:15 PM 53.6 °F 28.4 °F 38% 30.08 in 10.0 mi East 5.8 mph - N/A   Clear
11:35 PM 53.6 °F 26.6 °F 35% 30.08 in 10.0 mi East 6.9 mph - N/A   Clear
11:55 PM 53.6 °F 24.8 °F 33% 30.08 in 10.0 mi East 9.2 mph - N/A   Clear